Theta_e
314 314 321 320 315 318 323 326 327 329 330 343 346 348 350 345 349 360 355 355 354 340 339 337 334 337 339 339 336 334 326 324 324 325 325 328 328 329 328 326 326 327 327 327 327 325 323 322 321
315 319 326 325 313 314 320 324 327 329 330 345 346 347 349 352 352 353 354 355 348 338 337 333 331 335 339 339 336 335 327 324 324 326 326 330 330 329 327 327 327 327 327 326 324 323 322 321 321
314 325 328 315 312 315 316 322 325 329 331 334 345 350 351 349 349 352 351 353 348 336 335 331 330 331 338 339 336 336 329 325 324 327 328 328 327 327 327 328 327 325 324 323 322 321 321 321 321
320 322 324 315 313 314 317 317 318 321 322 323 338 353 354 346 343 340 339 352 345 334 333 329 327 328 337 339 337 337 331 325 325 326 327 327 327 327 328 327 324 323 322 322 321 321 321 321 321
321 324 317 315 315 317 317 318 318 319 320 322 325 350 352 341 340 339 347 352 339 334 331 329 323 328 337 340 337 337 334 326 325 326 327 327 328 327 325 323 322 321 321 321 321 321 321 321 321
319 322 319 318 317 317 317 320 320 320 322 323 324 353 353 352 351 351 353 353 338 333 331 325 324 329 336 340 337 337 335 329 325 326 327 328 327 324 323 322 321 321 321 321 321 321 320 320 334
314 317 319 319 320 319 318 321 319 320 321 322 324 354 353 354 354 353 353 350 341 333 331 325 327 332 335 340 337 337 337 332 325 325 326 326 325 323 322 321 321 322 321 321 321 321 321 324 344
317 314 318 320 320 320 320 322 322 321 322 324 324 346 353 353 353 354 349 347 345 339 330 325 327 335 336 338 337 337 337 333 327 325 325 325 323 322 322 322 322 321 321 321 321 322 327 339 346
316 316 317 317 319 320 322 319 322 323 323 324 326 345 353 354 355 352 348 345 345 344 331 327 325 329 333 336 337 337 337 334 327 325 324 324 323 322 322 322 322 321 321 323 334 332 339 345 346
313 314 316 317 318 318 319 320 321 321 322 323 349 352 354 354 355 353 347 346 346 346 333 330 327 324 326 330 334 335 336 332 326 325 324 322 322 322 327 328 323 325 325 331 342 345 347 345 348
314 314 315 318 318 319 319 319 320 320 321 322 340 353 353 354 355 355 348 348 348 348 334 331 330 326 322 322 325 328 328 327 324 325 323 323 334 337 335 331 336 337 340 347 344 346 347 347 347
312 315 315 315 316 317 318 319 319 320 320 321 322 351 353 354 355 354 349 349 349 347 336 334 332 329 326 320 321 322 323 322 323 324 324 339 340 341 338 336 337 338 340 346 345 347 348 351 346
315 314 316 316 316 317 317 318 319 319 320 320 321 342 352 353 354 354 351 349 349 346 341 339 334 332 333 329 320 320 320 321 323 324 323 339 342 343 336 338 337 338 342 346 348 351 350 349 346
317 317 317 316 316 316 317 318 319 320 320 321 321 321 340 352 353 353 352 349 348 346 343 342 339 334 338 338 328 320 322 323 327 330 326 338 340 339 336 337 334 335 342 346 349 348 348 346 336
314 315 316 316 315 315 316 316 318 319 320 320 321 321 321 347 349 352 352 350 348 346 343 343 342 338 338 339 338 329 334 334 338 340 339 337 332 337 340 338 331 339 344 345 344 348 347 341 337
311 311 315 315 315 315 315 315 316 318 320 320 321 321 321 322 346 351 351 351 348 346 343 343 343 341 340 342 338 338 336 336 338 338 338 338 337 337 340 338 334 341 346 345 347 346 336 338 335
310 311 313 314 316 316 315 315 317 318 318 320 320 321 321 322 347 348 350 350 348 346 343 344 343 342 342 344 346 342 341 340 341 339 339 339 338 335 337 335 336 345 345 345 348 345 336 336 331
311 311 311 313 314 315 315 315 317 318 318 319 320 321 321 321 342 344 352 350 348 346 344 345 344 345 347 346 345 345 344 345 345 344 341 340 338 333 335 332 334 343 346 349 348 342 338 335 331
312 312 312 311 313 314 315 316 316 317 317 317 318 320 320 321 333 341 349 351 351 346 345 346 346 346 346 346 346 347 348 346 346 345 342 339 337 334 332 335 333 338 343 346 345 339 335 332 330
318 313 312 313 313 313 313 314 316 317 317 317 318 318 320 321 327 333 342 335 347 349 347 347 348 348 347 346 347 346 346 346 345 343 340 337 335 334 335 336 340 341 342 344 342 338 334 333 328
317 316 316 315 314 314 314 314 316 317 317 318 318 319 320 320 330 340 332 338 339 341 349 348 348 348 349 345 346 348 347 348 345 339 338 336 336 338 337 341 343 344 344 344 341 338 331 326 323
318 317 317 317 318 316 315 320 319 318 316 317 318 319 319 321 321 344 343 342 337 331 341 350 349 349 348 343 349 349 348 347 342 337 337 338 338 343 342 343 343 346 344 342 337 332 325 320 319
320 319 318 318 317 320 316 321 320 318 317 317 317 319 321 321 322 346 344 341 329 338 346 351 350 349 348 349 349 350 347 342 340 338 338 340 341 345 345 344 344 343 341 338 334 327 326 325 318
318 318 317 318 318 322 318 320 320 319 317 317 318 320 321 322 322 347 344 333 335 334 348 350 351 350 349 352 349 347 346 337 336 336 340 344 346 346 346 343 343 341 337 334 329 327 325 318 317
316 320 321 319 322 320 316 319 320 320 317 318 318 320 321 322 326 351 351 345 347 347 350 350 350 349 348 351 347 337 333 334 339 346 348 347 344 343 342 341 337 338 333 329 327 324 319 318 317
319 320 321 322 322 320 319 316 318 320 320 319 320 321 322 322 336 351 346 346 348 349 350 350 349 347 344 342 335 335 336 347 348 346 344 343 342 341 339 338 337 332 329 328 323 320 317 316 317
321 320 319 319 318 321 322 320 319 319 319 320 319 320 322 323 323 349 350 348 347 349 349 351 350 347 342 337 339 340 344 348 346 345 342 340 339 338 338 337 335 331 327 323 322 318 317 317 316
322 322 324 320 330 330 327 322 319 321 320 320 319 319 321 322 322 326 348 345 346 349 352 351 349 347 344 343 349 347 348 346 345 343 341 340 339 338 334 333 331 327 323 321 317 318 317 317 317
323 324 321 321 324 328 332 325 328 326 324 324 321 320 321 322 322 329 347 342 333 335 347 347 349 348 345 341 349 349 348 346 345 343 342 341 339 335 332 329 325 326 321 318 318 318 319 318 315
322 323 322 325 325 324 327 329 326 326 325 326 319 320 321 321 323 333 350 347 344 345 347 347 348 348 347 345 347 346 345 345 345 342 341 338 335 332 329 327 325 322 319 318 319 318 317 312 309
Wind_Speed
7 6 2 4 2 2 5 9 8 16 16 13 16 9 9 13 11 5 17 22 15 32 34 33 31 30 29 27 25 22 21 21 22 22 21 20 19 18 17 16 15 14 12 11 9 9 8 8 8
7 8 4 6 4 2 9 15 16 18 30 11 26 29 15 6 10 20 11 18 16 32 34 33 31 31 30 27 25 22 20 20 21 21 20 19 17 16 15 15 13 12 10 9 7 7 7 7 7
8 6 3 5 4 11 9 8 13 20 38 19 10 4 17 18 22 21 7 18 18 32 33 31 30 30 30 28 25 23 20 19 20 20 19 18 17 15 14 12 11 10 8 7 6 6 6 6 7
5 4 7 2 10 13 20 10 13 22 37 28 6 9 9 31 26 17 16 23 22 34 32 30 30 30 31 28 26 23 21 19 20 20 19 17 16 14 12 10 8 8 7 6 5 5 5 7 8
4 7 4 6 15 13 14 23 31 24 21 26 25 7 27 34 28 32 36 29 29 35 32 29 29 31 31 28 26 24 21 19 19 18 18 16 15 12 10 8 7 6 6 4 4 4 5 7 10
5 5 3 13 18 12 14 29 28 22 27 32 14 13 16 31 42 49 45 30 33 35 33 30 29 30 31 29 25 23 20 19 19 18 17 15 13 11 8 7 5 5 4 3 3 4 6 8 13
5 4 7 11 14 13 16 33 13 21 25 30 32 3 27 38 50 49 34 26 27 32 34 31 31 29 29 28 25 23 20 18 18 18 15 14 12 9 8 6 5 3 3 3 4 5 6 8 12
14 3 6 9 13 21 18 30 29 28 27 42 37 7 23 39 41 38 36 29 26 28 32 32 32 32 31 29 26 23 20 17 17 17 16 13 11 9 7 5 3 2 2 4 5 5 7 8 9
20 10 13 14 15 14 24 16 36 31 31 32 32 5 42 43 45 43 39 36 32 25 34 32 32 32 31 29 27 25 21 18 17 17 15 12 10 8 6 4 2 2 3 4 7 6 6 7 9
7 6 17 12 13 15 23 24 32 23 28 28 16 31 41 44 45 48 43 39 34 30 38 32 31 30 30 30 29 27 24 20 18 16 14 12 10 7 4 6 4 4 2 2 7 6 4 4 5
15 15 16 19 27 29 27 32 36 22 21 25 8 36 40 43 42 42 44 39 36 28 40 36 32 29 29 29 29 27 24 21 19 17 14 13 13 8 4 3 5 6 2 3 6 3 0 2 2
12 20 23 26 32 34 23 33 29 24 27 31 25 34 44 43 43 44 46 40 35 31 38 35 33 29 25 26 28 25 24 23 21 18 18 14 11 8 4 3 1 1 5 3 5 4 6 4 8
11 11 22 28 32 32 36 26 26 31 38 34 31 19 40 44 44 42 45 42 37 34 33 33 31 27 23 19 25 25 24 22 20 18 19 17 14 12 10 7 5 3 6 5 5 8 7 10 11
18 21 24 28 27 27 21 21 23 38 34 32 32 17 20 44 43 40 41 48 42 37 39 36 32 27 22 17 18 22 21 19 17 16 18 18 14 15 10 12 11 8 9 7 6 9 9 13 13
21 15 18 18 21 14 24 18 19 36 30 32 32 27 22 33 43 45 42 44 45 41 44 41 36 30 26 22 15 19 17 14 12 11 9 13 15 15 10 9 5 7 11 13 17 15 15 18 14
13 9 8 10 12 18 17 16 20 31 27 29 32 27 27 18 40 43 46 46 47 46 48 43 39 34 30 27 22 19 19 17 17 16 12 9 14 15 11 9 8 7 9 12 17 18 18 14 10
7 8 13 17 16 16 13 18 19 29 28 25 30 30 31 18 34 20 32 43 50 50 49 47 43 37 34 29 25 23 23 21 18 18 14 11 10 14 16 12 12 8 13 15 18 18 14 10 8
8 7 9 12 10 17 15 19 17 28 28 24 27 33 31 22 28 36 19 33 50 52 49 48 45 40 34 35 33 29 29 23 19 17 16 12 10 12 14 9 14 11 12 15 17 16 12 11 12
11 9 13 16 15 16 17 19 19 20 24 26 31 29 32 27 22 36 32 30 27 52 50 44 42 40 37 33 36 33 27 25 19 16 15 13 11 9 11 11 13 14 12 15 16 13 10 10 12
21 12 14 13 15 15 20 20 22 20 18 28 29 29 33 30 20 32 46 34 26 40 43 41 38 36 32 37 37 33 32 26 24 19 16 13 12 9 13 10 12 10 12 15 14 11 11 12 10
16 11 16 15 16 13 17 20 17 20 22 30 35 34 35 36 25 33 43 42 43 23 41 44 40 37 33 31 34 28 28 24 27 18 20 14 12 9 12 11 10 11 14 15 11 10 9 6 6
17 17 6 9 18 11 5 7 13 16 17 19 25 29 34 37 27 37 39 42 38 34 35 40 38 37 33 33 36 28 28 28 25 20 17 16 13 12 11 9 8 11 13 13 9 7 2 1 4
14 2 3 8 10 9 10 3 10 15 15 13 16 26 36 37 30 46 49 47 35 40 39 36 37 37 36 35 34 29 29 25 25 22 18 18 18 14 12 9 12 12 9 9 9 4 4 5 6
6 3 2 5 3 6 12 9 8 11 18 13 13 24 32 35 36 38 42 49 35 35 41 37 40 42 40 38 34 33 32 28 24 22 21 18 17 16 14 11 10 7 8 7 5 5 4 2 6
5 5 3 3 3 6 4 10 15 9 15 18 20 22 31 35 37 42 47 50 45 49 48 47 48 46 43 39 35 33 32 30 24 19 18 16 14 13 12 8 6 6 7 6 5 4 2 4 7
2 3 2 4 3 4 7 11 11 19 23 21 31 29 32 34 38 45 47 47 48 50 46 44 42 42 41 38 35 32 30 26 21 19 16 15 13 12 10 7 6 7 7 8 8 5 0 7 11
3 6 4 4 8 4 5 8 9 19 19 15 24 26 25 27 21 42 44 39 36 37 40 39 38 36 38 38 33 31 30 26 23 20 16 15 12 8 7 7 8 10 10 8 4 1 5 8 15
5 5 1 2 4 2 8 8 10 8 17 16 25 24 31 34 34 29 48 44 35 37 42 39 37 37 36 40 32 30 30 25 22 20 18 14 7 3 4 6 10 13 11 5 2 2 7 10 13
1 2 4 2 4 3 4 4 7 9 11 14 21 37 42 35 39 32 46 46 40 48 36 37 39 37 37 40 36 33 27 22 19 19 15 10 5 2 5 11 13 10 9 7 6 5 6 10 14
14 3 7 4 4 4 2 6 10 22 19 13 18 39 44 37 44 34 43 44 40 44 46 42 40 39 41 43 38 31 29 24 23 19 12 9 6 10 12 14 12 10 9 6 2 5 9 12 12
Wind_Direction
239 189 78 304 41 199 228 236 240 270 276 88 108 145 154 127 140 249 158 181 173 168 162 161 161 158 154 149 144 142 139 137 137 138 136 133 136 133 129 124 121 116 113 109 104 95 88 79 69
201 199 213 257 144 233 256 231 245 253 263 135 113 124 138 120 127 118 149 171 169 168 164 162 162 160 158 153 148 145 142 139 139 138 139 137 137 133 130 126 123 119 116 111 102 93 83 72 62
190 205 255 167 207 217 253 199 247 252 258 223 135 138 132 140 123 132 293 184 170 170 166 165 163 163 161 157 153 149 144 142 141 141 142 141 139 137 133 132 127 120 116 110 102 88 75 63 49
150 222 255 215 227 232 244 275 283 284 290 308 231 142 139 155 156 157 233 199 180 170 169 168 165 164 163 160 158 152 148 147 146 144 145 145 142 141 139 135 127 121 117 106 90 71 55 43 35
229 262 231 232 249 260 261 251 256 272 278 278 287 98 141 155 146 150 180 186 184 170 169 168 167 165 165 164 162 157 154 151 149 150 150 148 147 146 143 136 131 122 107 97 79 58 42 36 34
285 231 256 231 252 256 252 262 271 272 280 281 274 122 137 160 149 157 175 176 184 168 169 168 165 166 166 165 166 162 158 157 156 156 157 154 154 150 147 139 133 116 102 85 52 37 34 39 56
227 302 240 257 268 267 247 253 253 261 271 275 281 103 140 155 160 167 167 166 166 168 170 166 163 165 168 167 169 168 166 165 163 159 161 161 160 156 151 149 133 109 88 53 27 21 36 68 70
234 246 272 260 252 264 276 279 274 261 266 271 276 196 164 159 160 154 149 161 156 166 174 167 164 164 168 172 173 175 173 174 170 165 165 167 165 164 161 153 130 106 56 31 26 32 63 82 64
259 243 253 252 261 284 293 289 286 287 283 277 278 193 156 153 150 150 156 158 161 171 178 171 169 168 170 176 177 179 179 180 178 171 168 170 172 171 168 147 122 69 34 43 43 64 92 81 35
220 252 248 262 274 280 285 287 292 307 299 301 105 135 150 153 154 153 162 164 169 174 179 174 173 174 175 180 183 183 183 184 183 175 171 170 169 172 174 122 72 38 53 73 47 75 82 86 26
234 243 266 271 271 273 269 276 287 291 294 292 161 147 155 159 157 160 164 174 175 172 178 177 175 179 181 185 187 187 185 185 181 178 172 173 175 157 174 101 75 44 70 43 34 19 3 283 320
274 258 250 256 261 273 273 286 290 294 284 298 305 177 160 165 165 162 165 172 175 171 179 177 173 178 185 185 188 189 188 185 183 179 169 169 182 174 268 163 267 82 345 313 348 319 197 221 271
273 278 284 267 261 258 269 271 275 284 286 294 298 205 169 170 168 171 171 169 179 172 177 178 171 174 180 184 188 188 187 188 185 182 177 178 181 193 216 217 246 236 333 279 241 223 233 270 295
302 293 288 292 293 277 262 267 272 275 282 290 294 280 222 171 170 172 171 168 179 175 179 178 172 173 179 183 191 187 186 186 186 186 184 192 194 210 201 219 219 227 292 264 251 265 276 293 301
317 313 303 290 277 285 291 266 262 268 280 280 285 290 280 199 176 175 180 180 180 180 183 181 174 169 176 192 195 181 171 176 180 199 203 218 211 203 220 238 238 202 275 268 267 276 288 293 294
297 291 293 285 299 268 272 269 264 268 276 275 279 289 285 294 186 180 183 181 180 180 186 182 175 171 171 188 184 172 179 185 187 209 222 219 212 213 208 229 228 279 264 265 263 276 289 288 299
251 256 259 278 271 268 263 263 264 269 270 265 271 275 281 294 173 172 188 183 180 182 183 181 175 177 172 173 171 181 180 182 191 202 219 221 228 233 228 217 225 240 260 261 275 298 302 298 292
261 288 291 286 292 313 298 267 256 261 261 265 271 263 271 282 191 183 166 174 174 181 182 181 174 174 171 172 176 183 186 188 191 205 208 222 241 217 220 225 227 241 256 272 287 303 296 291 291
291 285 278 286 291 286 285 285 289 246 243 257 259 256 257 260 226 182 190 161 164 177 179 182 180 183 186 185 189 187 187 184 184 196 213 214 218 224 221 222 242 256 273 286 295 292 289 294 303
297 262 269 282 284 289 287 278 284 276 221 237 248 258 247 247 228 192 187 207 215 167 176 184 187 187 194 194 197 199 199 190 191 193 203 207 206 229 221 231 241 263 282 286 283 286 291 304 313
273 278 291 283 288 276 285 282 275 285 222 233 238 243 259 240 203 190 166 179 195 237 185 184 190 191 193 195 194 196 192 192 192 184 188 192 215 236 228 230 245 267 277 275 281 294 300 300 333
282 265 287 319 303 278 248 291 291 270 233 221 231 237 246 236 231 187 172 169 191 212 227 183 189 193 197 190 191 190 193 188 194 189 191 192 215 218 228 248 274 275 276 286 297 287 278 16 327
254 36 239 238 278 306 268 248 262 261 253 216 219 223 239 225 225 176 167 178 184 186 213 201 198 197 198 193 189 187 190 192 194 190 192 205 214 214 228 246 257 265 273 260 268 249 264 300 320
118 359 293 239 197 249 225 200 257 231 226 218 213 224 230 216 217 179 175 174 190 187 209 208 202 203 198 196 196 192 196 195 191 198 201 202 205 215 225 240 245 252 245 239 234 247 262 309 350
89 44 329 329 181 237 177 193 238 269 226 207 217 218 234 205 202 170 169 175 179 189 199 199 203 201 198 196 196 192 191 197 194 194 199 201 206 211 229 232 261 246 213 207 225 236 283 322 341
105 162 164 276 269 325 298 233 234 240 254 220 217 214 223 197 183 172 183 191 190 190 196 194 195 197 198 195 186 183 191 191 189 199 196 202 195 207 201 216 231 207 205 211 202 196 316 9 3
150 215 186 229 256 271 253 250 286 225 237 234 211 216 221 219 205 177 178 184 182 192 195 196 194 191 187 179 177 185 189 191 192 183 196 198 196 188 201 232 219 212 203 187 183 194 353 349 351
141 134 206 187 307 285 270 214 220 215 230 240 204 206 214 220 221 202 172 177 177 195 194 195 192 184 178 173 177 182 188 187 191 191 185 177 154 235 270 216 203 184 168 167 225 316 328 338 328
294 153 79 256 254 258 304 284 27 344 295 278 243 199 207 209 219 206 173 188 200 193 194 187 184 182 173 175 177 181 175 185 183 182 172 172 192 253 183 178 162 171 172 171 217 263 316 322 330
199 190 160 177 286 257 260 292 348 344 305 276 191 189 198 208 220 202 168 174 180 183 185 189 180 174 173 179 179 179 184 183 176 166 164 174 188 175 169 158 170 169 179 198 278 323 321 322 328